Regional Weather Roundup
Issued by NWS

Home | Current Version | Previous Version | Text Only | Print | Product List | Glossary Off
Versions: 1 2 3 4 5 6 7 8 9 10 11 12 13 14 15 16 17 18 19 20 21 22 23 24 25 26 27 28 29 30 31 32 33 34 35 36 37 38 39 40 41 42 43 44 45 46 47 48 49 50

000
ASUS45 KCYS 040810
RWRWY

WYOMING REGIONAL WEATHER ROUNDUP
NATIONAL WEATHER SERVICE CHEYENNE WY
200 AM MDT MON MAY 04 2015

NOTE:  "FAIR" INDICATES FEW OR NO CLOUDS BELOW 12,000 FEET
WITH NO SIGNIFICANT WEATHER AND/OR OBSTRUCTIONS TO VISIBILITY.

WYZ001-040900-
YELLOWSTONE NATIONAL PARK

CITY           SKY/WX    TMP DP  RH WIND       PRES   REMARKS
LK YELLOWSTONE   N/A     29  27  92 CALM      30.12S
W YELLOWSTONE  NOT AVBL

$$
WYZ002>013-054>058-071-098>099-040900-
NORTHERN WYOMING

CITY           SKY/WX    TMP DP  RH WIND       PRES   REMARKS
JACKSON        FAIR      36  36 100 CALM      30.07S
CODY           FAIR      46  39  76 CALM      30.02S
GREYBULL       FAIR      61  40  45 W6        29.98S
WORLAND        MOCLDY    52  42  69 E6        29.99F
SHERIDAN       FAIR      51  42  71 SE12      30.00F
BUFFALO        CLOUDY    50  43  77 S12       30.07S
GILLETTE       RAIN      49  45  86 SE15      30.06F
HULETT         CLOUDY    46  41  81 SE7       30.08F
NEWCASTLE      DRIZZLE   46  43  87 MISG      30.10S

$$
WYZ014>020-022>026-101>103-040900-
CENTRAL WYOMING

CITY           SKY/WX    TMP DP  RH WIND       PRES   REMARKS
BIG PINEY      FAIR      35  32  88 CALM      30.10S
PINEDALE       FAIR      34  34 100 CALM      30.11S
DUBOIS         FAIR      37  32  81 W9        30.08F WCI  31
LANDER         CLOUDY    50  40  68 NW6       30.04F
RIVERTON       MOCLDY    49  41  74 NW5       30.04F
CASPER         MOCLDY    45  44  97 NW6       30.04F
DOUGLAS        CLOUDY    50  47  89 SE10      30.06F

$$
WYZ021-027>030-104>119-040900-
SOUTHERN WYOMING

CITY           SKY/WX    TMP DP  RH WIND       PRES   REMARKS
EVANSTON       FAIR      44  37  76 E10       30.08S
KEMMERER       FAIR      37  36  93 CALM      30.10S
FORT BRIDGER   SUNNY     41  41 100 N6        30.12S
ROCK SPRINGS   FAIR      46  36  68 W5        30.08S
DIXON          FAIR      46  43  90 E7        30.09F
RAWLINS        FAIR      37  34  89 CALM      30.08F
SARATOGA       PTSUNNY   45  39  81 SE9       30.09F
LARAMIE        CLOUDY    44  40  85 SE12      30.10F
CHEYENNE       CLOUDY    47  42  83 SE10      30.12R
TORRINGTON     MOCLDY    49  39  68 E13       30.06R
PINE BLUFFS    FAIR      45  39  81 SE6       30.12R

$$



USA.gov is the U.S. government's official web portal to all federal, state and local government web resources and services.